EHI
1 0 0 0 0 0 0 0 1 3 3 2 2 2 2 3 2 2 3 3 4 5 9 13 15 15 16 17 19 21 19 16 16 19 20 21 22 20 16 12 10 9 9 9
1 0 0 0 0 0 0 0 0 1 1 1 1 1 2 2 2 1 3 3 4 6 9 12 13 13 13 14 16 19 18 15 15 17 19 20 21 20 17 14 12 10 9 9
1 0 0 0 0 0 0 0 0 0 0 0 0 0 1 3 2 1 2 3 4 7 10 11 11 11 12 13 13 14 15 14 14 16 17 18 18 19 18 18 16 14 13 13
0 0 0 0 0 0 0 0 0 0 0 0 0 0 1 2 2 1 1 2 4 8 10 12 12 13 13 12 11 11 12 13 15 15 16 16 15 16 18 20 21 20 18 18
0 0 0 0 0 0 0 0 0 0 0 0 0 0 0 2 3 2 1 2 4 7 10 14 15 15 14 11 10 10 11 13 14 16 17 16 14 14 17 20 21 20 18 19
0 0 0 0 0 0 0 0 0 0 0 1 1 2 2 3 4 4 2 3 4 6 10 15 16 15 14 11 10 10 11 13 14 15 16 15 14 14 15 17 17 15 15 16
0 0 0 0 0 0 0 0 0 0 1 2 3 5 5 5 5 5 4 4 4 6 10 15 16 15 14 12 10 10 11 12 13 13 13 11 11 12 12 12 12 12 11 10
0 0 0 0 0 1 1 1 1 0 1 2 4 6 6 4 3 4 4 4 4 6 10 13 14 15 15 14 12 10 10 11 12 12 10 8 8 9 9 8 9 9 8 7
0 0 0 0 1 2 2 2 1 1 2 2 3 5 6 3 2 2 3 4 5 6 8 9 10 12 14 15 14 12 12 13 13 12 10 7 6 6 7 7 8 8 7 7
0 0 0 0 1 2 2 1 0 1 2 3 3 5 5 3 1 1 1 2 3 5 6 7 7 9 12 15 16 15 15 15 14 12 9 7 5 6 6 7 8 8 7 6
0 0 0 0 0 1 1 0 0 1 2 3 4 4 4 3 2 1 1 1 1 3 5 6 6 6 9 13 15 16 16 15 13 11 8 6 5 5 5 6 6 6 6 6
0 0 0 0 0 0 0 0 0 0 1 3 4 4 4 4 4 3 2 1 1 2 3 4 4 5 8 10 12 13 14 13 10 8 7 5 4 4 3 2 2 2 3 3
0 0 0 0 0 0 0 0 0 0 1 2 3 3 3 3 4 4 3 2 2 3 3 3 4 5 6 7 8 9 10 9 6 5 4 4 3 3 2 1 0 0 1 1
0 0 0 0 0 0 0 0 0 0 0 1 2 2 1 1 2 3 3 2 3 4 4 4 4 4 5 6 6 6 6 5 4 3 3 3 3 3 3 2 1 1 0 0
0 0 0 0 0 0 0 0 0 0 0 0 1 1 0 0 0 1 1 1 3 4 4 4 5 4 4 4 3 4 4 3 3 3 3 2 2 2 2 2 2 1 0 0
0 0 0 0 0 0 0 0 0 0 0 0 0 0 0 0 0 0 1 1 3 3 3 4 4 4 4 2 2 3 3 2 2 2 1 1 1 1 1 1 1 1 1 1
0 0 0 0 0 0 0 0 0 0 0 0 0 0 0 0 0 0 1 2 3 3 3 3 3 3 2 2 2 3 3 2 1 1 0 0 0 0 0 0 1 2 2 2
0 0 0 0 0 0 0 0 0 0 0 0 0 0 0 0 0 0 1 3 3 2 1 1 3 2 1 1 1 2 3 3 2 1 0 0 0 0 0 0 1 2 3 3
0 0 0 0 0 0 0 0 0 0 0 0 0 0 0 0 0 0 1 2 3 2 1 1 3 2 1 0 0 1 2 3 3 2 1 1 1 0 0 0 0 1 2 3
0 0 0 0 0 0 0 0 0 0 0 0 0 0 0 0 0 0 0 1 2 2 1 2 3 2 1 0 0 0 1 1 2 2 2 2 2 1 1 0 0 0 1 2
0 0 0 0 0 0 0 0 0 0 0 0 0 0 0 0 0 0 0 1 2 3 1 1 2 2 1 0 0 0 0 0 1 1 2 3 3 3 2 1 1 1 0 1
0 0 0 0 0 0 0 0 0 0 0 0 0 0 0 0 0 0 0 1 2 2 2 2 2 1 0 0 0 0 0 0 0 0 1 3 3 3 3 3 2 1 0 0
0 0 0 0 0 0 0 0 0 0 0 0 0 0 0 0 0 0 0 0 1 1 2 3 2 1 0 0 0 0 0 0 0 1 1 3 3 3 3 3 3 1 0 0
0 0 0 0 0 0 0 0 0 0 0 0 0 0 0 0 0 0 0 0 0 1 2 2 1 0 0 0 0 1 1 1 1 2 3 3 3 3 3 3 2 1 0 0
0 0 0 0 0 0 0 0 0 0 0 0 0 0 0 0 0 0 0 0 0 0 1 1 1 0 1 2 2 2 2 2 3 3 3 3 3 3 2 1 1 0 0 0
0 0 0 0 0 0 0 0 0 0 0 0 0 0 0 0 0 0 0 0 1 1 1 2 2 2 2 3 3 3 3 3 3 3 2 2 2 1 1 0 0 0 0 0
0 0 0 0 0 0 0 0 0 0 0 0 0 0 0 0 0 0 0 0 1 2 2 3 3 3 3 3 3 3 3 3 3 2 1 1 1 0 0 0 0 0 0 0
Wind_Speed
8 6 7 9 9 9 10 11 11 8 7 4 3 2 1 1 1 1 1 1 1 1 2 4 4 4 4 3 4 4 5 5 5 4 4 4 4 4 4 4 5 5 5 5
9 7 7 8 8 9 10 10 10 9 6 4 2 1 1 1 1 1 1 0 0 0 2 3 4 4 4 3 4 4 4 4 4 4 4 4 4 4 4 5 5 5 5 5
8 6 8 8 6 7 7 8 9 8 5 3 3 2 2 2 1 1 1 1 1 1 1 2 3 3 4 4 3 4 4 3 4 4 3 3 4 4 4 4 4 5 5 5
6 6 9 1 2 3 4 4 5 5 4 3 3 2 2 2 2 2 1 1 1 1 1 2 2 3 3 4 4 4 3 3 3 3 4 3 3 4 3 4 4 5 5 5
6 7 5 2 2 3 5 4 3 4 3 3 3 4 3 0 1 1 2 2 2 1 1 2 3 3 3 4 4 4 4 3 3 3 3 3 3 3 3 3 4 5 5 5
7 8 5 1 4 4 5 4 2 3 3 3 4 5 1 2 2 1 1 1 1 1 1 1 2 3 3 4 3 3 3 3 3 2 2 3 3 3 3 4 4 5 4 4
8 7 2 3 4 3 5 2 4 4 3 3 3 4 3 1 1 1 1 1 1 1 1 0 1 2 3 3 3 3 3 3 2 2 3 3 3 3 3 3 3 4 4 4
5 6 1 5 2 3 4 5 4 4 4 3 3 2 1 1 1 1 1 1 0 0 0 0 1 2 2 2 2 2 2 2 2 2 2 2 2 2 3 3 4 4 4 4
3 2 4 4 3 4 4 4 5 5 4 3 3 2 1 1 1 1 2 2 1 1 0 1 1 2 2 2 2 2 2 2 2 2 2 2 3 3 3 3 4 4 4 3
2 0 3 3 3 4 4 5 5 5 4 3 3 2 2 2 2 2 2 2 1 1 1 1 1 2 2 2 2 3 3 2 2 2 3 3 3 3 3 3 4 4 3 4
3 2 3 2 4 5 5 5 5 5 4 4 3 3 3 2 2 2 2 2 1 1 1 2 2 2 2 1 2 2 2 2 3 2 2 2 2 2 3 3 2 4 4 4
3 3 3 3 3 4 4 4 5 5 5 4 3 3 3 2 2 2 2 2 2 2 2 2 2 2 1 1 2 2 2 2 2 2 2 3 3 3 2 3 3 4 4 5
4 4 4 3 3 3 3 4 4 5 4 4 4 3 3 3 3 2 2 2 2 2 2 2 2 2 1 1 1 2 2 2 2 2 2 3 3 3 3 3 4 5 5 5
2 3 2 2 3 3 3 3 3 4 4 4 4 4 3 3 3 3 3 3 2 2 2 2 1 1 1 1 2 3 3 3 3 3 3 3 3 4 4 4 3 3 3 5
2 3 3 2 2 3 3 3 3 4 4 4 4 3 3 3 3 3 3 3 3 2 2 2 1 2 2 2 2 2 3 2 2 3 3 3 3 4 4 4 4 3 2 2
3 3 2 2 2 3 3 3 3 3 4 4 4 3 3 3 3 3 3 3 3 3 2 2 2 2 2 2 3 3 3 2 3 3 3 3 3 3 3 3 4 3 3 2
3 3 3 3 3 3 3 3 3 3 3 3 3 4 4 4 4 3 3 3 3 2 2 2 2 2 1 2 3 3 2 2 4 4 3 3 2 3 3 3 4 3 3 1
2 3 4 4 3 3 3 3 2 2 3 3 3 3 3 4 4 4 4 4 3 3 3 2 3 3 2 2 3 3 3 3 3 3 3 3 3 3 3 3 4 4 4 1
3 3 3 3 3 2 3 2 2 3 3 3 3 3 3 3 4 4 4 3 3 3 3 3 2 4 3 3 4 4 3 3 3 3 3 2 3 3 3 3 3 3 3 2
3 3 3 3 3 3 3 2 2 2 2 3 3 3 3 4 4 4 3 3 3 3 3 3 3 3 3 3 4 3 3 3 3 3 3 2 2 3 3 3 3 3 3 2
3 3 3 3 3 3 3 3 2 2 2 2 3 3 3 4 4 3 3 3 3 3 3 2 3 2 2 1 3 3 2 3 3 3 3 2 2 3 3 2 2 2 2 2
3 3 3 3 3 3 3 2 2 2 2 2 2 3 3 3 3 3 3 3 4 4 3 2 2 2 2 3 2 3 2 2 2 2 2 2 2 2 2 2 2 2 2 2
3 3 3 3 3 3 3 3 2 2 2 2 3 3 4 4 3 3 3 3 3 4 3 3 4 3 2 2 2 2 2 2 2 2 2 2 1 2 2 3 2 2 3 2
3 3 3 2 3 3 3 3 2 2 2 2 2 3 3 3 2 2 2 2 2 3 3 3 2 1 3 2 2 2 2 2 2 2 2 2 2 2 2 2 2 2 2 3
3 4 3 3 3 2 2 2 2 2 2 2 2 2 2 2 3 3 3 4 4 3 2 1 2 3 3 2 1 2 1 1 2 2 2 2 2 2 2 2 2 3 2 2
3 3 2 2 3 3 2 2 2 2 2 2 2 2 2 2 2 2 2 3 4 3 3 2 1 1 1 1 1 2 2 1 1 1 2 2 2 2 2 2 3 3 3 3
2 2 1 2 2 2 2 2 2 2 3 2 2 2 2 2 2 3 3 3 3 3 3 3 3 2 2 2 2 2 1 1 1 1 2 2 2 2 2 2 2 2 2 2
Wind_Direction
264 262 246 245 239 233 240 253 261 266 267 268 270 263 255 192 182 161 125 104 110 135 161 169 170 169 166 166 165 171 179 183 187 188 196 206 210 215 222 229 236 235 240 241
249 239 238 242 243 234 239 249 256 254 259 291 299 281 222 216 216 212 197 243 311 283 195 180 175 172 164 166 166 171 183 190 187 190 197 206 212 216 225 232 239 240 241 243
252 242 238 235 253 246 237 246 252 255 264 257 246 242 243 240 231 263 296 321 326 296 232 198 190 180 173 171 169 173 182 187 189 192 200 208 216 220 229 236 240 244 244 245
256 236 238 222 354 291 263 260 253 257 261 263 265 249 244 255 261 279 297 310 323 297 218 200 190 183 172 169 175 180 184 189 192 195 201 205 216 224 234 239 240 244 246 247
252 245 234 204 297 284 262 258 294 279 271 278 274 237 210 156 323 300 293 298 307 293 214 193 183 180 174 175 180 188 193 200 201 199 206 210 219 230 237 244 247 248 245 248
253 255 256 12 12 325 253 227 15 331 317 302 267 247 208 29 333 309 284 278 294 281 198 188 185 191 189 188 188 195 198 212 216 217 218 223 228 236 242 245 248 255 254 253
257 257 255 17 350 271 246 14 5 341 329 301 289 319 351 339 330 346 358 302 255 213 217 199 194 201 202 196 193 193 199 212 214 224 231 227 226 233 242 250 255 260 259 254
265 258 258 18 352 335 359 352 336 334 335 325 326 333 350 7 359 356 349 349 316 236 239 216 211 214 209 201 201 201 207 213 214 224 236 227 225 230 235 242 241 244 247 253
323 355 27 3 14 8 341 334 334 332 335 330 329 339 7 13 6 351 340 349 341 310 288 264 235 232 224 216 205 201 210 219 226 233 232 226 226 224 227 230 245 246 244 252
280 359 349 353 15 1 349 342 337 331 323 330 342 350 357 3 4 349 350 349 333 300 278 287 281 255 230 218 203 201 209 225 237 239 238 225 238 237 242 240 250 257 259 262
270 317 314 313 348 353 353 350 344 341 341 346 345 346 353 353 357 353 346 331 300 286 286 284 284 272 244 205 202 206 207 224 240 245 252 250 250 264 264 271 281 273 275 272
313 333 304 316 330 340 340 334 338 342 344 349 345 343 342 344 351 345 344 335 319 311 302 306 305 288 242 204 201 207 225 241 255 253 250 252 250 247 235 258 247 246 265 279
324 323 325 328 323 327 332 335 339 341 345 347 350 347 347 350 351 347 336 324 320 316 314 308 298 292 237 195 209 223 235 244 255 263 262 260 258 256 260 246 222 225 234 242
323 313 314 320 326 330 335 339 343 352 358 356 356 355 357 357 353 348 341 333 329 322 318 311 306 311 276 238 240 243 246 240 249 249 254 259 263 265 265 265 260 246 218 210
322 313 313 319 323 330 339 341 342 351 358 3 1 357 353 352 350 346 347 345 340 333 334 333 321 312 296 263 253 253 257 261 268 274 269 263 262 262 265 270 270 269 262 197
318 321 322 328 333 333 336 338 337 348 353 352 352 348 348 345 344 344 340 333 330 334 330 324 310 310 287 262 254 240 235 215 260 273 270 265 263 268 272 274 276 276 274 281
314 324 330 329 331 334 341 341 337 346 350 344 341 345 347 349 349 347 335 328 323 316 314 312 303 298 269 259 262 260 260 221 222 254 269 276 275 280 287 287 285 283 279 292
309 317 321 330 341 347 341 335 340 347 348 342 344 347 348 345 343 343 336 329 321 314 316 312 311 295 272 265 268 267 254 250 254 264 268 270 275 272 275 276 277 277 281 239
330 339 347 356 353 344 336 343 350 345 336 334 345 349 341 341 340 331 324 321 313 313 327 330 318 282 272 275 272 255 262 260 256 260 259 246 251 263 267 270 278 282 284 290
330 338 348 350 352 343 339 342 346 342 332 332 338 339 340 340 336 330 324 318 322 327 322 326 298 278 266 254 259 259 261 266 267 267 268 273 273 276 274 273 279 284 286 283
326 330 336 345 344 337 335 337 339 335 333 331 331 335 336 335 334 327 316 323 344 334 313 285 274 281 268 273 238 257 254 260 264 265 269 280 281 277 277 282 284 277 273 277
325 333 335 332 326 328 333 330 320 319 333 330 331 333 329 324 325 328 330 327 340 351 314 307 323 16 342 297 268 270 271 273 267 264 264 275 289 295 295 289 284 286 282 278
333 329 326 320 316 318 319 319 318 316 323 327 332 328 321 324 328 330 331 332 338 0 330 338 14 34 333 278 284 287 294 294 286 277 273 275 283 285 285 284 288 292 294 294
322 316 316 309 305 304 315 325 323 318 316 313 325 326 313 310 318 323 331 350 348 342 332 10 24 316 263 277 292 293 300 300 298 305 303 302 293 289 290 292 292 289 295 299
309 302 307 308 299 294 295 299 303 293 287 299 317 319 304 310 322 339 344 349 6 338 330 26 189 229 257 287 296 311 324 341 338 328 320 321 322 318 314 313 312 305 301 294
290 283 285 292 300 303 302 301 299 303 301 307 326 342 338 333 337 338 332 338 348 340 332 341 355 277 316 337 341 337 338 7 17 327 329 318 313 311 311 311 306 303 300 297
288 287 283 285 292 296 298 300 307 310 309 316 335 350 353 353 350 348 343 341 347 348 348 343 345 357 359 356 359 0 356 349 342 336 324 312 305 303 305 304 304 303 299 299